World > North America > United States > Texas

Duffau, Texas Regional Weather

Lat: 31.99N, Lon: 98.02W
Wx Zone: TXZ143Web Search

Our weather pages are very print friendly and they make great conversation starters.

Feedback


°F Click to change Duffau hourly weather to Imperial units.Click to change Duffau hourly weather to Metric units. °C
Duffau Weather Map
UTC Time: 5/6/2021, 12:19
Your Time:

Duffau, TX Regional Weather

Expires:202105061300;;682950
ASUS44 KFWD 061215
RWRTX 
NORTH TEXAS HOURLY WEATHER ROUNDUP
NATIONAL WEATHER SERVICE FORT WORTH TX
700 AM CDT THU MAY 06 2021

NOTE: "FAIR" INDICATES FEW OR NO CLOUDS BELOW 12,000 FEET WITH NO
SIGNIFICANT WEATHER AND/OR OBSTRUCTIONS TO VISIBILITY.


TXZ143>147-156>162-174-175-061300-
CENTRAL TEXAS
  
CITY           SKY/WX    TMP DP  RH WIND       PRES   REMARKS
WACO           FAIR      52  49  89 CALM      30.21R                  
6HR MIN TEMP:  52; 6HR MAX TEMP:  57;                                

WACO-TSTC      CLEAR     54  54 100 NE7       30.21                   
WACO-MCGREGOR  FAIR      53  50  89 NW3       30.22R                  
6HR MIN TEMP:  52; 6HR MAX TEMP:  56;                                

HILLSBORO      FAIR      55  53  95 CALM      30.21R                  
6HR MIN TEMP:  55; 6HR MAX TEMP:  61;                                

CORSICANA      FAIR      56  53  90 S3        30.20F                  
6HR MIN TEMP:  55; 6HR MAX TEMP:  62;                                

MEXIA          FAIR      58  54  86 CALM      30.20S                  
6HR MIN TEMP:  58; 6HR MAX TEMP:  62;                                

HEARNE         FAIR      56  54  94 CALM      30.21R                  
6HR MIN TEMP:  55; 6HR MAX TEMP:  59;                                

CAMERON        FAIR      55  52  90 NW5       30.21R                  
6HR MIN TEMP:  55; 6HR MAX TEMP:  60;                                

TEMPLE         FAIR      53  53 100 N3        30.22R                  
6HR MIN TEMP:  51; 6HR MAX TEMP:  57;                                

KILLEEN        FAIR      55  49  79 CALM      30.20R                  
6HR MIN TEMP:  53; 6HR MAX TEMP:  61;                                

KILLEEN-SKYLRK FAIR      55  50  83 NE3       30.22R                  
6HR MIN TEMP:  54; 6HR MAX TEMP:  59;                                

FORT HOOD      FAIR      58  51  76 NE5       30.21R                  
6HR MIN TEMP:  56; 6HR MAX TEMP:  61;                                

GATESVILLE     FAIR      54  48  82 CALM      30.24R                  
HAMILTON       FAIR      55  48  77 NE3       30.24R                  
6HR MIN TEMP:  55; 6HR MAX TEMP:  59;                                

LAMPASAS       FAIR      52  47  83 CALM      30.21R                  
6HR MIN TEMP:  50; 6HR MAX TEMP:  58;                                

$$


SKY/WX - Weather  TMP - Temperature  DP - Dew Point  RH - Relative Humidity
WIND - Wind Direction/Speed PRES - Barometric Pressure VSB - Visibility
WCI - Wind Chill Index E13G22 Wind - East Wind 13 mph/Gusts of 22 mph